datetime,area
2008-10-08,9589.6
2008-10-09,9590.4
2008-10-10,9591.2
2008-10-11,9592.0
2008-10-12,
2008-10-13,
2008-10-14,
2008-10-15,
2008-10-16,
2008-10-17,
2008-10-18,
2008-10-19,
2008-10-20,
2008-10-21,
2008-10-22,
2008-10-23,
2008-10-24,
2008-10-25,
2008-10-26,
2008-10-27,
2008-10-28,
2008-10-29,
2008-10-30,
2008-10-31,
2008-11-01,
2008-11-02,
2008-11-03,
2008-11-04,
2008-11-05,
2008-11-06,
2008-11-07,
2008-11-08,
2008-11-09,
2008-11-10,
2008-11-11,
2008-11-12,
2008-11-13,
2008-11-14,
2008-11-15,
2008-11-16,
2008-11-17,
2008-11-18,
2008-11-19,
2008-11-20,
2008-11-21,
2008-11-22,
2008-11-23,
2008-11-24,
2008-11-25,
2008-11-26,
2008-11-27,
2008-11-28,
2008-11-29,
2008-11-30,
2008-12-01,
2008-12-02,
2008-12-03,
2008-12-04,
2008-12-05,
2008-12-06,
2008-12-07,
2008-12-08,
2008-12-09,
2008-12-10,
2008-12-11,
2008-12-12,
2008-12-13,
2008-12-14,
2008-12-15,
2008-12-16,
2008-12-17,
2008-12-18,
2008-12-19,
2008-12-20,
2008-12-21,
2008-12-22,
2008-12-23,
2008-12-24,
2008-12-25,
2008-12-26,
2008-12-27,
2008-12-28,
2008-12-29,
2008-12-30,
2008-12-31,
2009-01-01,9639.2
2009-01-02,9640.8
2009-01-03,9642.4
2009-01-04,9643.2
2009-01-05,9644.0
2009-01-06,9646.4
2009-01-07,9648.8
2009-01-08,9651.2
2009-01-09,9652.0
2009-01-10,9654.4
2009-01-11,9656.8
2009-01-12,9660.0
2009-01-13,9664.2
2009-01-14,9669.0
2009-01-15,9672.0
2009-01-16,9675.0
2009-01-17,9678.0
2009-01-18,9681.0
2009-01-19,9684.0
2009-01-20,9687.0
2009-01-21,9694.8
2009-01-22,9702.0
2009-01-23,9706.8
2009-01-24,9711.6
2009-01-25,9716.4
2009-01-26,9720.0
2009-01-27,9722.8
2009-01-28,9725.6
2009-01-29,9728.0
2009-01-30,9730.0
2009-01-31,9732.0
2009-02-01,9734.4
2009-02-02,9737.2
2009-02-03,9739.6
2009-02-04,9741.6
2009-02-05,9744.0
2009-02-06,9746.0
2009-02-07,9748.0
2009-02-08,9750.0
2009-02-09,9752.0
2009-02-10,9756.8
2009-02-11,9761.2
2009-02-12,9764.5
2009-02-13,9767.5
2009-02-14,9769.6
2009-02-15,9771.7
2009-02-16,9773.5
2009-02-17,9776.2
2009-02-18,9778.9
2009-02-19,9781.6
2009-02-20,9784.3
2009-02-21,9787.0
2009-02-22,9789.7
2009-02-23,9792.0
2009-02-24,9792.8
2009-02-25,9793.8
2009-02-26,9795.6
2009-02-27,9798.6
2009-02-28,9799.6
2009-03-01,9799.6
2009-03-02,9800.8
2009-03-03,9802.4
2009-03-04,9804.0
2009-03-05,9807.2
2009-03-06,9808.0
2009-03-07,9810.3
2009-03-08,9813.6
2009-03-09,9816.6
2009-03-10,9820.5
2009-03-11,9824.1
2009-03-12,9826.5
2009-03-13,9828.9
2009-03-14,9831.0
2009-03-15,9833.1
2009-03-16,9834.9
2009-03-17,9836.7
2009-03-18,9840.0
2009-03-19,9841.0
2009-03-20,9843.2
2009-03-21,9845.4
2009-03-22,9847.6
2009-03-23,9850.0
2009-03-24,9853.0
2009-03-25,9854.4
2009-03-26,9856.8
2009-03-27,9859.0
2009-03-28,9860.6
2009-03-29,9862.2
2009-03-30,9864.0
2009-03-31,9865.0
2009-04-01,9865.4
2009-04-02,9866.4
2009-04-03,9867.4
2009-04-04,9869.4
2009-04-05,9871.4
2009-04-06,9873.4
2009-04-07,9874.6
2009-04-08,9875.8
2009-04-09,9877.2
2009-04-10,9879.6
2009-04-11,9881.4
2009-04-12,9883.2
2009-04-13,9884.8
2009-04-14,9887.6
2009-04-15,9890.4
2009-04-16,9895.8
2009-04-17,9901.2
2009-04-18,9903.8
2009-04-19,9906.4
2009-04-20,9909.0
2009-04-21,9910.6
2009-04-22,9912.2
2009-04-23,9914.0
2009-04-24,9917.8
2009-04-25,9920.5
2009-04-26,9922.1
2009-04-27,9923.6
2009-04-28,9924.9
2009-04-29,9926.2
2009-04-30,9927.5
2009-05-01,9929.5
2009-05-02,9931.2
2009-05-03,9932.9
2009-05-04,9934.5
2009-05-05,9935.9
2009-05-06,9937.2
2009-05-07,9939.1
2009-05-08,9940.9
2009-05-09,9942.7
2009-05-10,9944.0
2009-05-11,9945.3
2009-05-12,9946.6
2009-05-13,9948.0
2009-05-14,9949.1
2009-05-15,9949.0
2009-05-16,9949.8
2009-05-17,9950.0
2009-05-18,9950.0
2009-05-19,9950.0
2009-05-20,9950.0
2009-05-21,9950.0
2009-05-22,9950.0
2009-05-23,9950.0
2009-05-24,9950.0
2009-05-25,9950.0
2009-05-26,9950.0
2009-05-27,9950.0
2009-05-28,9950.0
2009-05-29,9950.0
2009-05-30,9950.0
2009-05-31,9950.0
2009-06-01,9950.0
2009-06-02,9950.0
2009-06-03,9950.0
2009-06-04,9950.0
2009-06-05,9950.0
2009-06-06,9950.0
2009-06-07,9950.0
2009-06-08,9950.0
2009-06-09,9950.0
2009-06-10,9950.0
2009-06-11,9950.0
2009-06-12,9950.0
2009-06-13,9950.0
2009-06-14,9950.0
2009-06-15,9950.0
2009-06-16,9950.0
2009-06-17,9950.0
2009-06-18,9950.0
2009-06-19,9950.0
2009-06-20,9949.8
2009-06-21,9949.4
2009-06-22,9949.0
2009-06-23,9948.6
2009-06-24,9948.2
2009-06-25,9947.5
2009-06-26,9947.4
2009-06-27,9947.3
2009-06-28,9947.2
2009-06-29,9947.0
2009-06-30,9947.0
2009-07-01,9947.0
2009-07-02,9947.0
2009-07-03,9947.0
2009-07-04,9947.0
2009-07-05,9947.0
2009-07-06,9947.0
2009-07-07,9947.0
2009-07-08,9946.5
2009-07-09,9946.4
2009-07-10,9946.0
2009-07-11,9946.0
2009-07-12,9946.0
2009-07-13,9946.0
2009-07-14,9945.8
2009-07-15,9945.6
2009-07-16,9945.4
2009-07-17,9945.2
2009-07-18,9945.0
2009-07-19,9944.8
2009-07-20,9944.3
2009-07-21,9944.1
2009-07-22,9944.0
2009-07-23,9943.0
2009-07-24,9942.7
2009-07-25,9942.4
2009-07-26,9942.1
2009-07-27,9942.0
2009-07-28,9941.5
2009-07-29,9941.0
2009-07-30,9940.5
2009-07-31,9940.0
2009-08-01,9940.0
2009-08-02,9939.4
2009-08-03,9938.8
2009-08-04,9938.2
2009-08-05,9937.6
2009-08-06,9937.0
2009-08-07,9936.4
2009-08-08,9935.8
2009-08-09,9935.2
2009-08-10,9934.6
2009-08-11,9934.0
2009-08-12,9933.4
2009-08-13,9933.0
2009-08-14,9932.5
2009-08-15,9932.0
2009-08-16,9931.5
2009-08-17,9931.0
2009-08-18,9930.5
2009-08-19,9930.0
2009-08-20,9929.5
2009-08-21,9929.0
2009-08-22,9929.0
2009-08-23,9929.0
2009-08-24,9929.0
2009-08-25,9929.0
2009-08-26,9929.0
2009-08-27,9928.5
2009-08-28,9928.5
2009-08-29,9928.5
2009-08-30,9928.5
2009-08-31,9928.5
2009-09-01,9928.5
2009-09-02,9928.2
2009-09-03,9927.9
2009-09-04,9927.6
2009-09-05,9927.3
2009-09-06,9927.0
2009-09-07,9926.7
2009-09-08,9926.4
2009-09-09,9926.3
2009-09-10,9926.2
2009-09-11,9926.1
2009-09-12,9926.0
2009-09-13,9926.0
2009-09-14,9926.0
2009-09-15,9925.9
2009-09-16,9925.8
2009-09-17,9925.7
2009-09-18,9925.6
2009-09-19,9925.3
2009-09-20,9925.1
2009-09-21,9925.0
2009-09-22,9924.8
2009-09-23,9924.6
2009-09-24,9924.4
2009-09-25,9924.2
2009-09-26,9924.0
2009-09-27,9923.8
2009-09-28,9923.6
2009-09-29,9923.3
2009-09-30,9923.0
2009-10-01,9923.0
2009-10-02,9923.3
2009-10-03,9923.6
2009-10-04,9923.8
2009-10-05,9924.0
2009-10-06,9924.1
2009-10-07,9924.2
2009-10-08,9924.3
2009-10-09,9924.4
2009-10-10,9924.4
2009-10-11,9924.5
2009-10-12,9924.5
2009-10-13,9924.6
2009-10-14,9924.7
2009-10-15,9924.8
2009-10-16,9924.8
2009-10-17,9924.9
2009-10-18,9924.9
2009-10-19,9925.0
2009-10-20,9925.0
2009-10-21,9925.0
2009-10-22,9925.0
2009-10-23,9925.0
2009-10-24,9925.0
2009-10-25,9925.0
2009-10-26,9925.0
2009-10-27,9925.0
2009-10-28,9925.0
2009-10-29,9925.0
2009-10-30,9925.0
2009-10-31,9925.0
2009-11-01,9925.0
2009-11-02,9924.9
2009-11-03,9924.8
2009-11-04,9924.7
2009-11-05,9924.6
2009-11-06,9924.5
2009-11-07,9924.4
2009-11-08,9924.3
2009-11-09,9924.2
2009-11-10,9924.1
2009-11-11,9924.0
2009-11-12,9923.8
2009-11-13,9923.6
2009-11-14,9923.4
2009-11-15,9923.2
2009-11-16,9923.0
2009-11-17,9922.9
2009-11-18,9922.7
2009-11-19,9922.6
2009-11-20,9922.4
2009-11-21,9922.3
2009-11-22,9922.1
2009-11-23,9922.0
2009-11-24,9921.9
2009-11-25,9921.7
2009-11-26,9921.6
2009-11-27,9921.4
2009-11-28,9921.3
2009-11-29,9921.1
2009-11-30,9921.0
2009-12-01,9921.0
2009-12-02,9920.5
2009-12-03,9920.0
2009-12-04,9919.0
2009-12-05,9918.0
2009-12-06,9917.0
2009-12-07,9916.0
2009-12-08,9916.0
2009-12-09,9916.0
2009-12-10,9916.0
2009-12-11,9916.0
2009-12-12,9916.0
2009-12-13,9916.0
2009-12-14,9916.0
2009-12-15,9916.0
2009-12-16,9916.0
2009-12-17,9916.0
2009-12-18,9916.0
2009-12-19,9916.0
2009-12-20,9916.0
2009-12-21,9916.0
2009-12-22,9916.0
2009-12-23,9916.0
2009-12-24,9916.0
2009-12-25,9916.0
2009-12-26,9916.0
2009-12-27,9916.0
2009-12-28,9916.0
2009-12-29,9916.0
2009-12-30,9916.0
2009-12-31,9916.0
2010-01-01,9916.0
2010-01-02,9916.0
2010-01-03,9916.0
2010-01-04,9916.0
2010-01-05,9916.0
2010-01-06,9916.0
2010-01-07,9916.0
2010-01-08,9916.0
2010-01-09,9916.0
2010-01-10,9916.0
2010-01-11,9916.0
2010-01-12,9916.0
2010-01-13,9916.0
2010-01-14,9916.0
2010-01-15,9916.0
2010-01-16,9916.0
2010-01-17,9916.0
2010-01-18,9916.0
2010-01-19,9916.0
2010-01-20,9916.0
2010-01-21,9916.0
2010-01-22,9916.0
2010-01-23,9916.0
2010-01-24,9916.0
2010-01-25,9916.0
2010-01-26,9916.0
2010-01-27,9916.0
2010-01-28,9916.0
2010-01-29,9916.0
2010-01-30,9916.0
2010-01-31,9916.0
2010-02-01,9916.0
2010-02-02,9915.4
2010-02-03,9914.8
2010-02-04,9914.2
2010-02-05,9914.0
2010-02-06,9914.6
2010-02-07,9915.2
2010-02-08,9916.0
2010-02-09,9916.0
2010-02-10,9916.0
2010-02-11,9916.0
2010-02-12,9916.0
2010-02-13,9916.0
2010-02-14,9916.0
2010-02-15,9916.0
2010-02-16,9916.6
2010-02-17,9917.2
2010-02-18,9917.8
2010-02-19,9918.0
2010-02-20,9918.6
2010-02-21,9919.2
2010-02-22,9920.0
2010-02-23,9920.0
2010-02-24,9920.0
2010-02-25,9920.0
2010-02-26,9920.7
2010-02-27,9921.4
2010-02-28,9922.0
2010-03-01,9922.0
2010-03-02,9922.1
2010-03-03,9922.3
2010-03-04,9922.3
2010-03-05,9922.5
2010-03-06,9922.6
2010-03-07,9922.8
2010-03-08,9923.0
2010-03-09,9923.3
2010-03-10,9923.6
2010-03-11,9923.9
2010-03-12,9924.0
2010-03-13,9924.3
2010-03-14,9924.7
2010-03-15,9925.0
2010-03-16,9925.2
2010-03-17,9925.4
2010-03-18,9925.6
2010-03-19,9925.8
2010-03-20,9926.0
2010-03-21,9926.2
2010-03-22,9926.4
2010-03-23,9926.7
2010-03-24,9927.0
2010-03-25,9927.4
2010-03-26,9927.8
2010-03-27,9928.2
2010-03-28,9928.6
2010-03-29,9929.0
2010-03-30,9929.4
2010-03-31,9930.0
2010-04-01,9930.0
2010-04-02,9930.3
2010-04-03,9930.6
2010-04-04,9930.9
2010-04-05,9931.2
2010-04-06,9931.5
2010-04-07,9931.8
2010-04-08,9932.0
2010-04-09,9932.3
2010-04-10,9932.6
2010-04-11,9932.9
2010-04-12,9933.2
2010-04-13,9933.5
2010-04-14,9933.8
2010-04-15,9933.9
2010-04-16,9934.0
2010-04-17,9934.2
2010-04-18,9934.4
2010-04-19,9934.6
2010-04-20,9934.7
2010-04-21,9934.8
2010-04-22,9935.0
2010-04-23,9936.0
2010-04-24,9936.7
2010-04-25,9937.4
2010-04-26,9938.0
2010-04-27,9938.5
2010-04-28,9939.0
2010-04-29,9939.5
2010-04-30,9940.0
2010-05-01,9940.0
2010-05-02,9941.0
2010-05-03,9942.0
2010-05-04,9942.8
2010-05-05,9943.6
2010-05-06,9944.4
2010-05-07,9945.0
2010-05-08,9945.1
2010-05-09,9945.2
2010-05-10,9945.3
2010-05-11,9945.4
2010-05-12,9945.5
2010-05-13,9945.6
2010-05-14,9945.7
2010-05-15,9945.9
2010-05-16,9946.0
2010-05-17,9946.2
2010-05-18,9946.5
2010-05-19,9946.7
2010-05-20,9946.9
2010-05-21,9947.0
2010-05-22,9947.4
2010-05-23,9947.8
2010-05-24,9948.2
2010-05-25,9948.6
2010-05-26,9949.0
2010-05-27,9949.3
2010-05-28,9949.5
2010-05-29,9949.7
2010-05-30,9949.8
2010-05-31,9950.0
2010-06-01,9950.0
2010-06-02,9950.0
2010-06-03,9950.0
2010-06-04,9950.0
2010-06-05,9950.0
2010-06-06,9950.0
2010-06-07,9950.0
2010-06-08,9950.0
2010-06-09,9950.0
2010-06-10,9950.0
2010-06-11,9950.0
2010-06-12,9950.0
2010-06-13,9950.0
2010-06-14,9950.0
2010-06-15,9950.0
2010-06-16,9950.0
2010-06-17,9950.0
2010-06-18,9950.0
2010-06-19,9950.0
2010-06-20,9950.0
2010-06-21,9950.0
2010-06-22,9950.0
2010-06-23,9950.0
2010-06-24,9950.0
2010-06-25,9950.0
2010-06-26,9950.0
2010-06-27,9950.0
2010-06-28,9950.0
2010-06-29,9950.0
2010-06-30,9950.0
2010-07-01,9950.0
2010-07-02,9950.0
2010-07-03,9950.0
2010-07-04,9950.0
2010-07-05,9950.0
2010-07-06,9950.0
2010-07-07,9950.0
2010-07-08,9948.6
2010-07-09,9947.2
2010-07-10,9945.8
2010-07-11,9944.4
2010-07-12,9943.0
2010-07-13,9942.3
2010-07-14,9941.7
2010-07-15,9941.0
2010-07-16,9940.6
2010-07-17,9940.3
2010-07-18,9939.9
2010-07-19,9939.5
2010-07-20,9939.4
2010-07-21,9939.4
2010-07-22,9939.3
2010-07-23,9939.2
2010-07-24,9939.1
2010-07-25,9939.1
2010-07-26,9939.0
2010-07-27,9938.8
2010-07-28,9938.6
2010-07-29,9938.4
2010-07-30,9938.2
2010-07-31,9938.0
2010-08-01,9937.5
2010-08-02,9937.0
2010-08-03,9936.3
2010-08-04,9935.5
2010-08-05,9934.8
2010-08-06,9934.0
2010-08-07,9933.4
2010-08-08,9932.9
2010-08-09,9932.3
2010-08-10,9931.7
2010-08-11,9931.1
2010-08-12,9930.6
2010-08-13,9930.0
2010-08-14,9929.5
2010-08-15,9929.0
2010-08-16,9928.5
2010-08-17,9928.0
2010-08-18,9927.5
2010-08-19,9927.0
2010-08-20,9926.5
2010-08-21,9926.0
2010-08-22,9925.5
2010-08-23,9925.0
2010-08-24,9924.6
2010-08-25,9924.3
2010-08-26,9923.9
2010-08-27,9923.5
2010-08-28,9923.4
2010-08-29,9923.3
2010-08-30,9923.1
2010-08-31,9923.0
2010-09-01,9922.5
2010-09-02,9921.3
2010-09-03,9920.0
2010-09-04,9920.0
2010-09-05,9920.0
2010-09-06,9920.0
2010-09-07,9920.0
2010-09-08,9919.8
2010-09-09,9919.8
2010-09-10,9919.8
2010-09-11,9919.8
2010-09-12,9919.8
2010-09-13,9919.8
2010-09-14,9919.8
2010-09-15,9919.8
2010-09-16,9919.6
2010-09-17,9919.6
2010-09-18,9919.6
2010-09-19,9919.6
2010-09-20,9919.6
2010-09-21,9919.4
2010-09-22,9919.4
2010-09-23,9919.2
2010-09-24,9919.0
2010-09-25,9918.8
2010-09-26,9918.6
2010-09-27,9918.6
2010-09-28,9918.4
2010-09-29,9918.2
2010-09-30,9918.0
2010-10-01,9918.0
2010-10-02,9918.2
2010-10-03,9918.6
2010-10-04,9918.8
2010-10-05,9919.0
2010-10-06,9919.4
2010-10-07,9919.6
2010-10-08,9919.8
2010-10-09,9919.8
2010-10-10,9920.0
2010-10-11,9920.0
2010-10-12,9919.0
2010-10-13,9918.0
2010-10-14,9917.6
2010-10-15,9917.4
2010-10-16,9917.0
2010-10-17,9916.6
2010-10-18,9916.4
2010-10-19,9916.0
2010-10-20,9916.0
2010-10-21,9916.0
2010-10-22,9916.0
2010-10-23,9916.0
2010-10-24,9916.0
2010-10-25,9916.0
2010-10-26,9916.0
2010-10-27,9916.0
2010-10-28,9916.0
2010-10-29,9916.0
2010-10-30,9916.0
2010-10-31,9916.0
2010-11-01,9916.0
2010-11-02,9915.8
2010-11-03,9915.8
2010-11-04,9915.6
2010-11-05,9915.6
2010-11-06,9915.4
2010-11-07,9915.4
2010-11-08,9915.2
2010-11-09,9915.2
2010-11-10,9915.0
2010-11-11,9914.8
2010-11-12,9914.8
2010-11-13,9914.6
2010-11-14,9914.6
2010-11-15,9914.4
2010-11-16,9914.2
2010-11-17,9914.2
2010-11-18,9914.0
2010-11-19,9914.0
2010-11-20,9914.0
2010-11-21,9914.0
2010-11-22,9914.0
2010-11-23,9914.0
2010-11-24,9914.2
2010-11-25,9914.2
2010-11-26,9914.2
2010-11-27,9914.2
2010-11-28,9914.2
2010-11-29,9914.2
2010-11-30,9914.2
2010-12-01,9914.2
2010-12-02,9913.8
2010-12-03,9913.6
2010-12-04,9913.2
2010-12-05,9913.0
2010-12-06,9912.6
2010-12-07,9912.2
2010-12-08,9911.8
2010-12-09,9911.4
2010-12-10,9911.2
2010-12-11,9910.8
2010-12-12,9910.4
2010-12-13,9910.0
2010-12-14,9910.6
2010-12-15,9911.2
2010-12-16,9911.8
2010-12-17,9912.2
2010-12-18,9912.8
2010-12-19,9913.4
2010-12-20,9914.0
2010-12-21,9913.6
2010-12-22,9913.2
2010-12-23,9913.0
2010-12-24,9912.6
2010-12-25,9912.2
2010-12-26,9911.8
2010-12-27,9911.4
2010-12-28,9911.0
2010-12-29,9910.8
2010-12-30,9910.4
2010-12-31,9910.0
2011-01-01,9910.0
2011-01-02,9909.78
2011-01-03,9909.56
2011-01-04,9909.33
2011-01-05,9909.11
2011-01-06,9908.89
2011-01-07,9908.67
2011-01-08,9908.44
2011-01-09,9908.22
2011-01-10,9908.0
2011-01-11,9908.0
2011-01-12,9908.0
2011-01-13,9908.0
2011-01-14,9908.0
2011-01-15,9908.0
2011-01-16,9908.0
2011-01-17,9908.0
2011-01-18,9908.0
2011-01-19,9908.0
2011-01-20,9908.0
2011-01-21,9908.0
2011-01-22,9908.0
2011-01-23,9908.0
2011-01-24,9908.0
2011-01-25,9908.0
2011-01-26,9908.0
2011-01-27,9908.0
2011-01-28,9908.0
2011-01-29,9908.0
2011-01-30,9908.0
2011-01-31,9908.0
2011-02-01,9910.0
2011-02-02,9911.0
2011-02-03,9912.0
2011-02-04,9913.0
2011-02-05,9914.0
2011-02-06,9915.0
2011-02-07,9916.0
2011-02-08,9916.29
2011-02-09,9916.57
2011-02-10,9916.86
2011-02-11,9917.14
2011-02-12,9917.43
2011-02-13,9917.71
2011-02-14,9918.0
2011-02-15,9918.13
2011-02-16,9918.25
2011-02-17,9918.37
2011-02-18,9918.5
2011-02-19,9918.62
2011-02-20,9918.75
2011-02-21,9918.88
2011-02-22,9919.0
2011-02-23,9919.0
2011-02-24,9919.0
2011-02-25,9919.0
2011-02-26,9919.0
2011-02-27,9919.0
2011-02-28,9919.0
2011-03-01,9919.0
2011-03-02,9919.6
2011-03-03,9920.2
2011-03-04,9920.5
2011-03-05,9920.5
2011-03-06,9920.5
2011-03-07,9920.5
2011-03-08,9919.4
2011-03-09,9917.8
2011-03-10,9913.8
2011-03-11,9909.8
2011-03-12,9905.8
2011-03-13,9901.8
2011-03-14,9897.8
2011-03-15,9898.0
2011-03-16,9898.2
2011-03-17,9898.4
2011-03-18,9898.6
2011-03-19,9898.6
2011-03-20,9898.6
2011-03-21,9898.6
2011-03-22,9898.6
2011-03-23,9898.6
2011-03-24,9898.6
2011-03-25,9898.8
2011-03-26,9898.8
2011-03-27,9899.0
2011-03-28,9899.0
2011-03-29,9900.4
2011-03-30,9901.6
2011-03-31,9903.0
2011-04-01,9904.41
2011-04-02,9905.82
2011-04-03,9907.24
2011-04-04,9908.65
2011-04-05,9910.06
2011-04-06,9911.47
2011-04-07,9912.88
2011-04-08,9914.29
2011-04-09,9915.71
2011-04-10,9917.12
2011-04-11,9918.53
2011-04-12,9919.94
2011-04-13,9920.68
2011-04-14,9921.38
2011-04-15,9922.09
2011-04-16,9922.79
2011-04-17,9923.5
2011-04-18,9923.5
2011-04-19,9923.5
2011-04-20,9923.72
2011-04-21,9923.94
2011-04-22,9924.16
2011-04-23,9924.38
2011-04-24,9924.6
2011-04-25,9924.9
2011-04-26,9925.2
2011-04-27,9925.5
2011-04-28,9925.8
2011-04-29,9926.1
2011-04-30,9926.4
2011-05-01,9927.5
2011-05-02,9928.3
2011-05-03,9929.1
2011-05-04,9929.9
2011-05-05,9930.7
2011-05-06,9931.5
2011-05-07,9931.5
2011-05-08,9931.5
2011-05-09,9931.5
2011-05-10,9931.5
2011-05-11,9931.5
2011-05-12,9931.5
2011-05-13,9931.74
2011-05-14,9931.98
2011-05-15,9932.21
2011-05-16,9932.45
2011-05-17,9932.69
2011-05-18,9932.92
2011-05-19,9933.16
2011-05-20,9933.4
2011-05-21,9932.6
2011-05-22,9931.8
2011-05-23,9931.0
2011-05-24,9931.3
2011-05-25,9931.6
2011-05-26,9931.9
2011-05-27,9932.2
2011-05-28,9932.5
2011-05-29,9932.8
2011-05-30,9933.1
2011-05-31,9933.4
2011-06-01,9937.5
2011-06-02,9937.28
2011-06-03,9937.05
2011-06-04,9936.82
2011-06-05,9936.6
2011-06-06,9936.37
2011-06-07,9936.15
2011-06-08,9935.92
2011-06-09,9935.7
2011-06-10,9935.56
2011-06-11,9935.42
2011-06-12,9935.28
2011-06-13,9935.14
2011-06-14,9935.0
2011-06-15,9934.7
2011-06-16,9934.4
2011-06-17,9934.1
2011-06-18,9933.8
2011-06-19,9933.5
2011-06-20,9933.2
2011-06-21,9932.9
2011-06-22,9932.92
2011-06-23,9932.95
2011-06-24,9932.97
2011-06-25,9933.0
2011-06-26,9933.35
2011-06-27,9933.7
2011-06-28,9933.8
2011-06-29,9933.9
2011-06-30,9934.0
2011-07-01,9934.0
2011-07-02,9935.5
2011-07-03,9937.0
2011-07-04,9938.5
2011-07-05,9940.0
2011-07-06,9941.2
2011-07-07,9942.3
2011-07-08,9943.3
2011-07-09,9945.1
2011-07-10,9946.2
2011-07-11,9947.1
2011-07-12,9947.7
2011-07-13,9948.3
2011-07-14,9948.8
2011-07-15,9949.4
2011-07-16,9950.0
2011-07-17,9950.0
2011-07-18,9949.9
2011-07-19,9949.9
2011-07-20,9949.8
2011-07-21,9949.8
2011-07-22,9949.7
2011-07-23,9949.7
2011-07-24,9949.6
2011-07-25,9949.6
2011-07-26,9949.5
2011-07-27,9949.4
2011-07-28,9949.3
2011-07-29,9949.2
2011-07-30,9949.1
2011-07-31,9949.0
2011-08-01,9949.0
2011-08-02,9948.9
2011-08-03,9948.9
2011-08-04,9948.8
2011-08-05,9948.8
2011-08-06,9948.7
2011-08-07,9948.6
2011-08-08,9948.6
2011-08-09,9948.5
2011-08-10,9948.4
2011-08-11,9948.4
2011-08-12,9948.3
2011-08-13,9948.3
2011-08-14,9948.2
2011-08-15,9948.1
2011-08-16,9948.1
2011-08-17,9948.0
2011-08-18,9947.9
2011-08-19,9947.7
2011-08-20,9947.6
2011-08-21,9947.4
2011-08-22,9947.3
2011-08-23,9947.1
2011-08-24,9947.0
2011-08-25,9946.9
2011-08-26,9946.7
2011-08-27,9946.6
2011-08-28,9946.4
2011-08-29,9946.3
2011-08-30,9946.1
2011-08-31,9946.0
2011-09-01,9945.8
2011-09-02,9945.6
2011-09-03,9945.4
2011-09-04,9945.1
2011-09-05,9944.7
2011-09-06,9944.4
2011-09-07,9944.0
2011-09-08,9943.9
2011-09-09,9943.8
2011-09-10,9943.8
2011-09-11,9943.7
2011-09-12,9943.7
2011-09-13,9943.6
2011-09-14,9943.6
2011-09-15,9943.5
2011-09-16,9943.4
2011-09-17,9943.4
2011-09-18,9943.3
2011-09-19,9943.3
2011-09-20,9943.2
2011-09-21,9943.1
2011-09-22,9943.0
2011-09-23,9942.9
2011-09-24,9942.8
2011-09-25,9942.7
2011-09-26,9942.6
2011-09-27,9942.4
2011-09-28,9942.3
2011-09-29,9942.2
2011-09-30,9942.0
2011-10-01,9941.9
2011-10-02,9941.8
2011-10-03,9941.7
2011-10-04,9941.6
2011-10-05,9941.5
2011-10-06,9941.4
2011-10-07,9941.3
2011-10-08,9941.2
2011-10-09,9941.1
2011-10-10,9941.0
2011-10-11,9941.0
2011-10-12,9941.0
2011-10-13,9940.9
2011-10-14,9940.8
2011-10-15,9940.7
2011-10-16,9940.6
2011-10-17,9940.6
2011-10-18,9940.5
2011-10-19,9940.4
2011-10-20,9940.3
2011-10-21,9940.1
2011-10-22,9939.9
2011-10-23,9939.7
2011-10-24,9939.5
2011-10-25,9939.4
2011-10-26,9939.3
2011-10-27,9939.3
2011-10-28,9939.2
2011-10-29,9939.2
2011-10-30,9939.1
2011-10-31,9939.0
2011-11-01,9939.0
2011-11-02,9938.8
2011-11-03,9938.6
2011-11-04,9938.4
2011-11-05,9938.2
2011-11-06,9938.0
2011-11-07,9937.8
2011-11-08,9937.6
2011-11-09,9937.4
2011-11-10,9937.34
2011-11-11,9937.29
2011-11-12,9937.23
2011-11-13,9937.17
2011-11-14,9937.11
2011-11-15,9937.06
2011-11-16,9937.0
2011-11-17,9936.95
2011-11-18,9936.9
2011-11-19,9936.85
2011-11-20,9936.8
2011-11-21,9936.75
2011-11-22,9936.7
2011-11-23,9936.65
2011-11-24,9936.6
2011-11-25,9936.55
2011-11-26,9936.5
2011-11-27,9936.45
2011-11-28,9936.4
2011-11-29,9936.35
2011-11-30,9936.3
2011-12-01,9936.3
2011-12-02,9936.15
2011-12-03,9936.0
2011-12-04,9935.85
2011-12-05,9935.7
2011-12-06,9935.55
2011-12-07,9935.4
2011-12-08,9935.36
2011-12-09,9935.31
2011-12-10,9935.27
2011-12-11,9935.23
2011-12-12,9935.19
2011-12-13,9935.14
2011-12-14,9935.1
2011-12-15,9935.04
2011-12-16,9934.99
2011-12-17,9934.93
2011-12-18,9934.87
2011-12-19,9934.81
2011-12-20,9934.76
2011-12-21,9934.7
2011-12-22,9934.69
2011-12-23,9934.68
2011-12-24,9934.67
2011-12-25,9934.66
2011-12-26,9934.64
2011-12-27,9934.63
2011-12-28,9934.62
2011-12-29,9934.61
2011-12-30,9934.6
2011-12-31,9934.59
2012-01-01,9934.58
2012-01-02,9934.57
2012-01-03,9934.56
2012-01-04,9934.54
2012-01-05,9934.53
2012-01-06,9934.52
2012-01-07,9934.51
2012-01-08,9934.5
2012-01-09,9934.49
2012-01-10,9934.48
2012-01-11,9934.47
2012-01-12,9934.46
2012-01-13,9934.44
2012-01-14,9934.43
2012-01-15,9934.42
2012-01-16,9934.41
2012-01-17,9934.4
2012-01-18,9934.6
2012-01-19,9934.8
2012-01-20,9935.0
2012-01-21,9935.2
2012-01-22,9935.4
2012-01-23,9935.6
2012-01-24,9935.8
2012-01-25,9936.0
2012-01-26,9936.0
2012-01-27,9936.0
2012-01-28,9936.0
2012-01-29,9936.0
2012-01-30,9936.0
2012-01-31,9936.0
2012-02-01,9936.0
2012-02-02,9936.0
2012-02-03,9935.9
2012-02-04,9935.8
2012-02-05,9935.7
2012-02-06,9935.6
2012-02-07,9935.64
2012-02-08,9935.68
2012-02-09,9935.71
2012-02-10,9935.75
2012-02-11,9935.79
2012-02-12,9935.83
2012-02-13,9935.86
2012-02-14,9935.9
2012-02-15,9935.89
2012-02-16,9935.87
2012-02-17,9935.86
2012-02-18,9935.85
2012-02-19,9935.84
2012-02-20,9935.83
2012-02-21,9935.81
2012-02-22,9935.8
2012-02-23,9935.7
2012-02-24,9935.6
2012-02-25,9935.5
2012-02-26,9935.4
2012-02-27,9935.3
2012-02-28,9935.2
2012-02-29,9935.1
2012-03-01,9935.1
2012-03-02,9935.1
2012-03-03,9935.1
2012-03-04,9935.1
2012-03-05,9935.1
2012-03-06,9935.1
2012-03-07,9935.1
2012-03-08,9935.1
2012-03-09,9935.1
2012-03-10,9935.1
2012-03-11,9935.1
2012-03-12,9935.1
2012-03-13,9935.0
2012-03-14,9935.0
2012-03-15,9935.0
2012-03-16,9935.0
2012-03-17,9935.0
2012-03-18,9935.0
2012-03-19,9935.0
2012-03-20,9935.0
2012-03-21,9935.0
2012-03-22,9935.0
2012-03-23,9934.9
2012-03-24,9934.9
2012-03-25,9934.9
2012-03-26,9934.9
2012-03-27,9934.8
2012-03-28,9934.7
2012-03-29,9934.6
2012-03-30,9934.5
2012-03-31,9934.4
2012-04-01,9934.3
2012-04-02,9934.2
2012-04-03,9934.2
2012-04-04,9934.2
2012-04-05,9934.2
2012-04-06,9934.2
2012-04-07,9934.2
2012-04-08,9934.2
2012-04-09,9934.2
2012-04-10,9934.2
2012-04-11,9934.2
2012-04-12,9934.2
2012-04-13,9934.2
2012-04-14,9934.2
2012-04-15,9934.2
2012-04-16,9934.0
2012-04-17,9933.5
2012-04-18,9932.8
2012-04-19,9932.8
2012-04-20,9932.9
2012-04-21,9932.9
2012-04-22,9933.0
2012-04-23,9933.0
2012-04-24,9933.1
2012-04-25,9933.4
2012-04-26,9933.7
2012-04-27,9934.1
2012-04-28,9934.5
2012-04-29,9934.8
2012-04-30,9935.1
2012-05-01,9935.15
2012-05-02,9935.2
2012-05-03,9935.29
2012-05-04,9935.37
2012-05-05,9935.46
2012-05-06,9935.54
2012-05-07,9935.63
2012-05-08,9935.71
2012-05-09,9935.8
2012-05-10,9935.66
2012-05-11,9935.51
2012-05-12,9935.37
2012-05-13,9935.23
2012-05-14,9934.8
2012-05-15,9934.94
2012-05-16,9934.8
2012-05-17,9934.76
2012-05-18,9934.72
2012-05-19,9934.68
2012-05-20,9934.64
2012-05-21,9934.6
2012-05-22,9934.55
2012-05-23,9934.5
2012-05-24,9934.42
2012-05-25,9934.33
2012-05-26,9934.25
2012-05-27,9934.17
2012-05-28,9934.08
2012-05-29,9934.0
2012-05-30,9933.95
2012-05-31,9933.9
2012-06-01,9933.9
2012-06-02,9933.58
2012-06-03,9933.27
2012-06-04,9932.95
2012-06-05,9932.64
2012-06-06,9932.32
2012-06-07,9932.01
2012-06-08,9931.69
2012-06-09,9931.38
2012-06-10,9931.06
2012-06-11,9930.75
2012-06-12,9930.43
2012-06-13,9930.12
2012-06-14,9929.8
2012-06-15,9929.11
2012-06-16,9928.43
2012-06-17,9927.74
2012-06-18,9927.06